OneWeb SL0616

operational
NORAD ID: 55157 Int'l Des: 2023-004 Owner: ONEWEBN Country: UK Constellation: oneweb
LEOCIRCULARPOLARONEWEB_TYPE

OneWeb SL0616について

説明を読み込み中...

リアルタイム位置

3D地球を読み込み中...

次回通過

高度履歴

Altitude vs Time

uPlot chart will show altitude changes over time

軌道要素

1 55157U 23004T 25258.48189093 -.00000233 00000-0 -63375-3 0 9993
2 55157 87.9049 60.5013 0000999 60.3734 299.7497 13.17648397131525
Epoch: Sep 15, 2025 • Age: 14 hours

現在のステータス

高度 1222.8 km
速度 7.24 km/s
衛星直下点 -82.80°S, 22.5°E
打ち上げ日 Jan 10, 2023
運用期間 2.6 years
タイプ internet

技術仕様

分類 Payload
質量 148.00 kg
乾燥質量 140.00 kg
総質量 148.00 kg
長さ 1.30 m
直径 1.00 m
スパン 5.00 m
形状 Trapezoid+2 pan
製造者 ONEWUS
バスタイプ ARROW
フェーズステータス In Orbit
所有者/国 ONEWEBN/UK

大規模コンステレーション

Loading constellations...